Morrisville, VT

8:07 PM EDT on May 25, 2017 (GMT -0400)
Morrisville Stowe State

Weather History for KMVL - March, 2013

Change the Weather History Date:

Friday, March 8, 2013

  Actual Average Record
Temperature  
Mean Temperature 33 °F 26 °F  
Max Temperature 41 °F 37 °F 59 °F (2012)
Min Temperature 24 °F 14 °F -11 °F (2007)
Degree Days  
Heating Degree Days 32 39  
Month to date heating degree days 284 326  
Since 1 July heating degree days 5816 6286  
Cooling Degree Days 0 0  
Month to date cooling degree days 0 0  
Year to date cooling degree days 0 0  
Moisture  
Dew Point 21 °F    
Average Humidity 62    
Maximum Humidity 75    
Minimum Humidity 48    
Precipitation  
Precipitation T in 0.04 in 1.20 in (2008)
Month to date precipitation 0.04 0.33  
Year to date precipitation 2.75 4.61  
Sea Level Pressure  
Sea Level Pressure 30.25 in    
Wind  
Wind Speed 6 mph (North)    
Max Wind Speed 17 mph    
Max Gust Speed 22 mph    
Visibility 10 miles    
Events      
T = Trace of Precipitation, MM = Missing Value Source: NWS Daily Summary

Daily Weather History Graph

Daily Weather History Graph

Search for Another Location

Airport or City:

Trip Planner

Search our weather history database for the weather conditions in past years. The results will help you decide how hot, cold, wet, or windy it might be!

Date:

Astronomy

Mar. 08, 2013 Rise Set
Actual Time 6:15 AM EST 5:47 PM EST
Civil Twilight 5:46 AM EST 6:16 PM EST
Nautical Twilight 5:12 AM EST 6:50 PM EST
Astronomical Twilight 4:38 AM EST 7:24 PM EST
Moon 4:04 AM EST (3/8) 2:33 PM EST (3/8)
Length of Visible Light 12h 30m
Length of Day
11h 32m
Waning Crescent, 12% of the Moon is Illuminated
Mar 8
Waning Crescent
Mar 11
New
Mar 19
First Quarter
Mar 27
Full
Apr 3
Last Quarter

Hourly Weather History & Observations

Time (EST) Temp. Windchill Dew Point Humidity Pressure Visibility Wind Dir Wind Speed Gust Speed Precip Events Conditions
12:54 AM 30.0 °F 22.4 °F 19.9 °F 66% 30.18 in 10.0 mi NNE 8.1 mph - N/A   Overcast
1:54 AM 30.0 °F 22.4 °F 19.9 °F 66% 30.17 in 10.0 mi North 8.1 mph - 0.00 in   Overcast
2:54 AM 30.0 °F 24.1 °F 19.9 °F 66% 30.18 in 10.0 mi North 5.8 mph - N/A   Overcast
3:54 AM 30.0 °F 25.2 °F 19.9 °F 66% 30.18 in 10.0 mi NNE 4.6 mph - N/A   Overcast
4:54 AM 28.9 °F 23.9 °F 19.9 °F 69% 30.19 in 10.0 mi North 4.6 mph - N/A   Overcast
5:54 AM 28.9 °F 23.9 °F 21.0 °F 72% 30.20 in 10.0 mi North 4.6 mph - N/A   Overcast
6:54 AM 28.9 °F 21.9 °F 21.0 °F 72% 30.22 in 10.0 mi North 6.9 mph - N/A   Overcast
7:54 AM 28.9 °F 23.9 °F 21.0 °F 72% 30.24 in 10.0 mi NNE 4.6 mph - N/A   Overcast
8:09 AM 28.4 °F 20.4 °F 21.2 °F 74% 30.21 in 10.0 mi North 8.1 mph - N/A   Overcast
8:19 AM 28.4 °F 21.2 °F 21.2 °F 74% 30.21 in 10.0 mi North 6.9 mph - N/A   Overcast
8:54 AM 30.0 °F 23.2 °F 21.0 °F 69% 30.24 in 10.0 mi North 6.9 mph - N/A   Scattered Clouds
9:54 AM 30.9 °F 24.3 °F 21.9 °F 69% 30.25 in 10.0 mi North 6.9 mph - N/A   Clear
10:54 AM 33.1 °F 24.4 °F 21.9 °F 64% 30.25 in 10.0 mi NNW 11.5 mph 18.4 mph N/A   Clear
11:54 AM 37.9 °F 32.7 °F 21.9 °F 53% 30.25 in 10.0 mi NNW 6.9 mph - N/A   Clear
12:54 PM 39.0 °F 32.3 °F 21.9 °F 50% 30.24 in 10.0 mi North 10.4 mph - N/A   Clear
1:54 PM 39.9 °F 32.9 °F 21.9 °F 49% 30.24 in 10.0 mi NW 11.5 mph 18.4 mph N/A   Clear
2:54 PM 39.0 °F 31.8 °F 21.9 °F 50% 30.25 in 10.0 mi NNW 11.5 mph 20.7 mph N/A   Clear
3:54 PM 37.9 °F 29.6 °F 21.9 °F 53% 30.25 in 10.0 mi NNW 13.8 mph 19.6 mph N/A   Clear
4:54 PM 37.0 °F 31.0 °F 23.0 °F 57% 30.28 in 10.0 mi North 8.1 mph - N/A   Clear
5:54 PM 35.1 °F 28.6 °F 23.0 °F 61% 30.31 in 10.0 mi NNW 8.1 mph 18.4 mph N/A   Clear
6:54 PM 33.1 °F 27.7 °F 23.0 °F 66% 30.33 in 10.0 mi North 5.8 mph - N/A   Clear
7:54 PM 33.1 °F 28.7 °F 23.0 °F 66% 30.35 in 10.0 mi North 4.6 mph - N/A   Clear
8:54 PM 30.0 °F - 21.0 °F 69% 30.35 in 10.0 mi Calm Calm - N/A   Clear
9:54 PM 28.9 °F - 21.9 °F 75% 30.35 in 10.0 mi Calm Calm - N/A   Clear
10:54 PM 26.1 °F - 19.9 °F 78% 30.35 in 10.0 mi Calm Calm - N/A   Clear
11:54 PM 24.1 °F - 19.9 °F 84% 30.35 in 10.0 mi Calm Calm - N/A   Clear